Year,Month,Day,Hour,Minute,Value (Times are PST for temperature in C)
2017,07,05,00,00,15.20
2017,07,05,00,01,15.20
2017,07,05,00,02,15.10
2017,07,05,00,03,15.10
2017,07,05,00,04,15.10
2017,07,05,00,05,15.10
2017,07,05,00,06,15.00
2017,07,05,00,07,15.00
2017,07,05,00,08,14.90
2017,07,05,00,09,14.90
2017,07,05,00,10,14.90
2017,07,05,00,11,14.90
2017,07,05,00,12,14.90
2017,07,05,00,13,14.90
2017,07,05,00,14,14.80
2017,07,05,00,15,14.80
2017,07,05,00,16,14.80
2017,07,05,00,17,14.80
2017,07,05,00,18,14.80
2017,07,05,00,19,14.80
2017,07,05,00,20,14.70
2017,07,05,00,21,14.70
2017,07,05,00,22,14.70
2017,07,05,00,23,14.70
2017,07,05,00,24,14.70
2017,07,05,00,25,14.60
2017,07,05,00,26,14.60
2017,07,05,00,27,14.60
2017,07,05,00,28,14.60
2017,07,05,00,29,14.60
2017,07,05,00,30,14.60
2017,07,05,00,31,14.50
2017,07,05,00,32,14.50
2017,07,05,00,33,14.50
2017,07,05,00,34,14.50
2017,07,05,00,35,14.40
2017,07,05,00,36,14.40
2017,07,05,00,37,14.40
2017,07,05,00,38,14.40
2017,07,05,00,39,14.30
2017,07,05,00,40,14.30
2017,07,05,00,41,14.30
2017,07,05,00,42,14.30
2017,07,05,00,43,14.30
2017,07,05,00,44,14.30
2017,07,05,00,45,14.30
2017,07,05,00,46,14.30
2017,07,05,00,47,14.30
2017,07,05,00,48,14.30
2017,07,05,00,49,14.20
2017,07,05,00,50,14.20
2017,07,05,00,51,14.20
2017,07,05,00,52,14.20
2017,07,05,00,53,14.20
2017,07,05,00,54,14.20
2017,07,05,00,55,14.10
2017,07,05,00,56,14.10
2017,07,05,00,57,14.10
2017,07,05,00,58,14.10
2017,07,05,00,59,14.10
2017,07,05,01,00,14.10
2017,07,05,01,01,14.00
2017,07,05,01,02,14.00
2017,07,05,01,03,14.00
2017,07,05,01,04,14.00
2017,07,05,01,05,14.00
2017,07,05,01,06,13.90
2017,07,05,01,07,13.90
2017,07,05,01,08,13.90
2017,07,05,01,09,13.90
2017,07,05,01,10,13.90
2017,07,05,01,11,13.90
2017,07,05,01,12,13.90
2017,07,05,01,13,13.90
2017,07,05,01,14,13.90
2017,07,05,01,15,13.90
2017,07,05,01,16,13.90
2017,07,05,01,17,13.90
2017,07,05,01,18,13.90
2017,07,05,01,19,13.90
2017,07,05,01,20,13.90
2017,07,05,01,21,13.90
2017,07,05,01,22,13.90
2017,07,05,01,23,13.90
2017,07,05,01,24,13.90
2017,07,05,01,25,13.90
2017,07,05,01,26,13.90
2017,07,05,01,27,13.80
2017,07,05,01,28,13.80
2017,07,05,01,29,13.80
2017,07,05,01,30,13.80
2017,07,05,01,31,13.80
2017,07,05,01,32,13.80
2017,07,05,01,33,13.80
2017,07,05,01,34,13.80
2017,07,05,01,35,13.80
2017,07,05,01,36,13.80
2017,07,05,01,37,13.80
2017,07,05,01,38,13.80
2017,07,05,01,39,13.80
2017,07,05,01,40,13.80
2017,07,05,01,41,13.80
2017,07,05,01,42,13.80
2017,07,05,01,43,13.80
2017,07,05,01,44,13.80
2017,07,05,01,45,13.80
2017,07,05,01,46,13.80
2017,07,05,01,47,13.70
2017,07,05,01,48,13.70
2017,07,05,01,49,13.70
2017,07,05,01,50,13.70
2017,07,05,01,51,13.70
2017,07,05,01,52,13.70
2017,07,05,01,53,13.70
2017,07,05,01,54,13.70
2017,07,05,01,55,13.60
2017,07,05,01,56,13.60
2017,07,05,01,57,13.60
2017,07,05,01,58,13.60
2017,07,05,01,59,13.60
2017,07,05,02,00,13.60
2017,07,05,02,01,13.60
2017,07,05,02,02,13.50
2017,07,05,02,03,13.50
2017,07,05,02,04,13.50
2017,07,05,02,05,13.50
2017,07,05,02,06,13.50
2017,07,05,02,07,13.40
2017,07,05,02,08,13.40
2017,07,05,02,09,13.40
2017,07,05,02,10,13.40
2017,07,05,02,11,13.40
2017,07,05,02,12,13.40
2017,07,05,02,13,13.40
2017,07,05,02,14,13.40
2017,07,05,02,15,13.30
2017,07,05,02,16,13.30
2017,07,05,02,17,13.30
2017,07,05,02,18,13.30
2017,07,05,02,19,13.30
2017,07,05,02,20,13.20
2017,07,05,02,21,13.20
2017,07,05,02,22,13.20
2017,07,05,02,23,13.20
2017,07,05,02,24,13.20
2017,07,05,02,25,13.20
2017,07,05,02,26,13.10
2017,07,05,02,27,13.10
2017,07,05,02,28,13.10
2017,07,05,02,29,13.10
2017,07,05,02,30,13.10
2017,07,05,02,31,13.10
2017,07,05,02,32,13.00
2017,07,05,02,33,13.00
2017,07,05,02,34,13.00
2017,07,05,02,35,12.90
2017,07,05,02,36,12.90
2017,07,05,02,37,12.90
2017,07,05,02,38,12.90
2017,07,05,02,39,12.90
2017,07,05,02,40,12.90
2017,07,05,02,41,12.90
2017,07,05,02,42,12.90
2017,07,05,02,43,12.90
2017,07,05,02,44,12.90
2017,07,05,02,45,12.90
2017,07,05,02,46,12.80
2017,07,05,02,47,12.80
2017,07,05,02,48,12.80
2017,07,05,02,49,12.80
2017,07,05,02,50,12.80
2017,07,05,02,51,12.70
2017,07,05,02,52,12.70
2017,07,05,02,53,12.70
2017,07,05,02,54,12.70
2017,07,05,02,55,12.70
2017,07,05,02,56,12.70
2017,07,05,02,57,12.60
2017,07,05,02,58,12.60
2017,07,05,02,59,12.60
2017,07,05,03,00,12.60
2017,07,05,03,01,12.60
2017,07,05,03,02,12.60
2017,07,05,03,03,12.60
2017,07,05,03,04,12.70
2017,07,05,03,05,12.60
2017,07,05,03,06,12.60
2017,07,05,03,07,12.60
2017,07,05,03,08,12.60
2017,07,05,03,09,12.60
2017,07,05,03,10,12.50
2017,07,05,03,11,12.50
2017,07,05,03,12,12.50
2017,07,05,03,13,12.50
2017,07,05,03,14,12.50
2017,07,05,03,15,12.50
2017,07,05,03,16,12.40
2017,07,05,03,17,12.40
2017,07,05,03,18,12.40
2017,07,05,03,19,12.40
2017,07,05,03,20,12.40
2017,07,05,03,21,12.40
2017,07,05,03,22,12.40
2017,07,05,03,23,12.40
2017,07,05,03,24,12.40
2017,07,05,03,25,12.40
2017,07,05,03,26,12.40
2017,07,05,03,27,12.40
2017,07,05,03,28,12.30
2017,07,05,03,29,12.40
2017,07,05,03,30,12.30
2017,07,05,03,31,12.30
2017,07,05,03,32,12.30
2017,07,05,03,33,12.30
2017,07,05,03,34,12.30
2017,07,05,03,35,12.40
2017,07,05,03,36,12.40
2017,07,05,03,37,12.40
2017,07,05,03,38,12.40
2017,07,05,03,39,12.40
2017,07,05,03,40,12.40
2017,07,05,03,41,12.40
2017,07,05,03,42,12.40
2017,07,05,03,43,12.40
2017,07,05,03,44,12.40
2017,07,05,03,45,12.40
2017,07,05,03,46,12.40
2017,07,05,03,47,12.40
2017,07,05,03,48,12.40
2017,07,05,03,49,12.40
2017,07,05,03,50,12.40
2017,07,05,03,51,12.50
2017,07,05,03,52,12.50
2017,07,05,03,53,12.50
2017,07,05,03,54,12.50
2017,07,05,03,55,12.50
2017,07,05,03,56,12.50
2017,07,05,03,57,12.50
2017,07,05,03,58,12.50
2017,07,05,03,59,12.50
2017,07,05,04,00,12.60
2017,07,05,04,01,12.60
2017,07,05,04,02,12.60
2017,07,05,04,03,12.60
2017,07,05,04,04,12.60
2017,07,05,04,05,12.60
2017,07,05,04,06,12.60
2017,07,05,04,07,12.60
2017,07,05,04,08,12.60
2017,07,05,04,09,12.60
2017,07,05,04,10,12.60
2017,07,05,04,11,12.60
2017,07,05,04,12,12.60
2017,07,05,04,13,12.60
2017,07,05,04,14,12.60
2017,07,05,04,15,12.60
2017,07,05,04,16,12.60
2017,07,05,04,17,12.60
2017,07,05,04,18,12.60
2017,07,05,04,19,12.60
2017,07,05,04,20,12.60
2017,07,05,04,21,12.50
2017,07,05,04,22,12.50
2017,07,05,04,23,12.50
2017,07,05,04,24,12.40
2017,07,05,04,25,12.40
2017,07,05,04,26,12.40
2017,07,05,04,27,12.40
2017,07,05,04,28,12.40
2017,07,05,04,29,12.30
2017,07,05,04,30,12.30
2017,07,05,04,31,12.30
2017,07,05,04,32,12.30
2017,07,05,04,33,12.30
2017,07,05,04,34,12.30
2017,07,05,04,35,12.30
2017,07,05,04,36,12.30
2017,07,05,04,37,12.30
2017,07,05,04,38,12.30
2017,07,05,04,39,12.30
2017,07,05,04,40,12.20
2017,07,05,04,41,12.20
2017,07,05,04,42,12.20
2017,07,05,04,43,12.20
2017,07,05,04,44,12.20
2017,07,05,04,45,12.20
2017,07,05,04,46,12.20
2017,07,05,04,47,12.20
2017,07,05,04,48,12.20
2017,07,05,04,49,12.20
2017,07,05,04,50,12.10
2017,07,05,04,51,12.10
2017,07,05,04,52,12.10
2017,07,05,04,53,12.10
2017,07,05,04,54,12.10
2017,07,05,04,55,12.10
2017,07,05,04,56,12.10
2017,07,05,04,57,12.10
2017,07,05,04,58,12.00
2017,07,05,04,59,12.00
2017,07,05,05,00,12.00
2017,07,05,05,01,12.00
2017,07,05,05,02,12.00
2017,07,05,05,03,12.00
2017,07,05,05,04,11.90
2017,07,05,05,05,11.90
2017,07,05,05,06,11.90
2017,07,05,05,07,11.90
2017,07,05,05,08,11.90
2017,07,05,05,09,11.90
2017,07,05,05,10,11.80
2017,07,05,05,11,11.80
2017,07,05,05,12,11.80
2017,07,05,05,13,11.80
2017,07,05,05,14,11.80
2017,07,05,05,15,11.80
2017,07,05,05,16,11.80
2017,07,05,05,17,11.70
2017,07,05,05,18,11.70
2017,07,05,05,19,11.70
2017,07,05,05,20,11.70
2017,07,05,05,21,11.70
2017,07,05,05,22,11.70
2017,07,05,05,23,11.70
2017,07,05,05,24,11.70
2017,07,05,05,25,11.70
2017,07,05,05,26,11.70
2017,07,05,05,27,11.60
2017,07,05,05,28,11.60
2017,07,05,05,29,11.60
2017,07,05,05,30,11.60
2017,07,05,05,31,11.60
2017,07,05,05,32,11.50
2017,07,05,05,33,11.50
2017,07,05,05,34,11.50
2017,07,05,05,35,11.50
2017,07,05,05,36,11.50
2017,07,05,05,37,11.50
2017,07,05,05,38,11.50
2017,07,05,05,39,11.50
2017,07,05,05,40,11.40
2017,07,05,05,41,11.40
2017,07,05,05,42,11.40
2017,07,05,05,43,11.40
2017,07,05,05,44,11.40
2017,07,05,05,45,11.40
2017,07,05,05,46,11.40
2017,07,05,05,47,11.40
2017,07,05,05,48,11.40
2017,07,05,05,49,11.40
2017,07,05,05,50,11.40
2017,07,05,05,51,11.40
2017,07,05,05,52,11.40
2017,07,05,05,53,11.30
2017,07,05,05,54,11.30
2017,07,05,05,55,11.40
2017,07,05,05,56,11.40
2017,07,05,05,57,11.40
2017,07,05,05,58,11.40
2017,07,05,05,59,11.40
2017,07,05,06,00,11.40
2017,07,05,06,01,11.40
2017,07,05,06,02,11.50
2017,07,05,06,03,11.50
2017,07,05,06,04,11.60
2017,07,05,06,05,11.60
2017,07,05,06,06,11.60
2017,07,05,06,07,11.70
2017,07,05,06,08,11.70
2017,07,05,06,09,11.70
2017,07,05,06,10,11.80
2017,07,05,06,11,11.80
2017,07,05,06,12,11.80
2017,07,05,06,13,11.90
2017,07,05,06,14,12.00
2017,07,05,06,15,12.10
2017,07,05,06,16,12.10
2017,07,05,06,17,12.20
2017,07,05,06,18,12.30
2017,07,05,06,19,12.40
2017,07,05,06,20,12.50
2017,07,05,06,21,12.60
2017,07,05,06,22,12.70
2017,07,05,06,23,12.80
2017,07,05,06,24,12.90
2017,07,05,06,25,12.90
2017,07,05,06,26,13.00
2017,07,05,06,27,13.20
2017,07,05,06,28,13.30
2017,07,05,06,29,13.40
2017,07,05,06,30,13.50
2017,07,05,06,31,13.70
2017,07,05,06,32,13.80
2017,07,05,06,33,14.00
2017,07,05,06,34,14.00
2017,07,05,06,35,14.10
2017,07,05,06,36,14.30
2017,07,05,06,37,14.40
2017,07,05,06,38,14.50
2017,07,05,06,39,14.60
2017,07,05,06,40,14.70
2017,07,05,06,41,14.80
2017,07,05,06,42,14.80
2017,07,05,06,43,14.80
2017,07,05,06,44,14.90
2017,07,05,06,45,14.90
2017,07,05,06,46,14.90
2017,07,05,06,47,15.00
2017,07,05,06,48,15.10
2017,07,05,06,49,15.20
2017,07,05,06,50,15.20
2017,07,05,06,51,15.20
2017,07,05,06,52,15.20
2017,07,05,06,53,15.20
2017,07,05,06,54,15.20
2017,07,05,06,55,15.20
2017,07,05,06,56,15.20
2017,07,05,06,57,15.20
2017,07,05,06,58,15.20
2017,07,05,06,59,15.20
2017,07,05,07,00,15.20
2017,07,05,07,01,15.20
2017,07,05,07,02,15.20
2017,07,05,07,03,15.30
2017,07,05,07,04,15.30
2017,07,05,07,05,15.40
2017,07,05,07,06,15.50
2017,07,05,07,07,15.60
2017,07,05,07,08,15.70
2017,07,05,07,09,15.80
2017,07,05,07,10,16.00
2017,07,05,07,11,16.10
2017,07,05,07,12,16.20
2017,07,05,07,13,16.30
2017,07,05,07,14,16.40
2017,07,05,07,15,16.50
2017,07,05,07,16,16.60
2017,07,05,07,17,16.70
2017,07,05,07,18,16.80
2017,07,05,07,19,16.90
2017,07,05,07,20,17.00
2017,07,05,07,21,17.10
2017,07,05,07,22,17.10
2017,07,05,07,23,17.20
2017,07,05,07,24,17.20
2017,07,05,07,25,17.30
2017,07,05,07,26,17.30
2017,07,05,07,27,17.40
2017,07,05,07,28,17.40
2017,07,05,07,29,17.40
2017,07,05,07,30,17.50
2017,07,05,07,31,17.60
2017,07,05,07,32,17.60
2017,07,05,07,33,17.70
2017,07,05,07,34,17.70
2017,07,05,07,35,17.80
2017,07,05,07,36,17.80
2017,07,05,07,37,17.90
2017,07,05,07,38,17.90
2017,07,05,07,39,18.00
2017,07,05,07,40,18.10
2017,07,05,07,41,18.20
2017,07,05,07,42,18.20
2017,07,05,07,43,18.30
2017,07,05,07,44,18.40
2017,07,05,07,45,18.50
2017,07,05,07,46,18.50
2017,07,05,07,47,18.60
2017,07,05,07,48,18.70
2017,07,05,07,49,18.70
2017,07,05,07,50,18.80
2017,07,05,07,51,18.80
2017,07,05,07,52,18.90
2017,07,05,07,53,18.90
2017,07,05,07,54,19.00
2017,07,05,07,55,19.00
2017,07,05,07,56,19.10
2017,07,05,07,57,19.10
2017,07,05,07,58,19.10
2017,07,05,07,59,19.20
2017,07,05,08,00,19.20
2017,07,05,08,01,19.20
2017,07,05,08,02,19.10
2017,07,05,08,03,19.10
2017,07,05,08,04,19.10
2017,07,05,08,05,19.10
2017,07,05,08,06,19.10
2017,07,05,08,07,19.10
2017,07,05,08,08,19.10
2017,07,05,08,09,19.20
2017,07,05,08,10,19.20
2017,07,05,08,11,19.20
2017,07,05,08,12,19.30
2017,07,05,08,13,19.30
2017,07,05,08,14,19.40
2017,07,05,08,15,19.40
2017,07,05,08,16,19.50
2017,07,05,08,17,19.60
2017,07,05,08,18,19.60
2017,07,05,08,19,19.70
2017,07,05,08,20,19.80
2017,07,05,08,21,19.80
2017,07,05,08,22,19.80
2017,07,05,08,23,19.80
2017,07,05,08,24,19.90
2017,07,05,08,25,19.90
2017,07,05,08,26,19.90
2017,07,05,08,27,20.00
2017,07,05,08,28,20.10
2017,07,05,08,29,20.20
2017,07,05,08,30,20.30
2017,07,05,08,31,20.40
2017,07,05,08,32,20.40
2017,07,05,08,33,20.50
2017,07,05,08,34,20.50
2017,07,05,08,35,20.50
2017,07,05,08,36,20.50
2017,07,05,08,37,20.50
2017,07,05,08,38,20.40
2017,07,05,08,39,20.50
2017,07,05,08,40,20.50
2017,07,05,08,41,20.60
2017,07,05,08,42,20.70
2017,07,05,08,43,20.70
2017,07,05,08,44,20.70
2017,07,05,08,45,20.70
2017,07,05,08,46,20.70
2017,07,05,08,47,20.70
2017,07,05,08,48,20.60
2017,07,05,08,49,20.60
2017,07,05,08,50,20.50
2017,07,05,08,51,20.40
2017,07,05,08,52,20.30
2017,07,05,08,53,20.30
2017,07,05,08,54,20.30
2017,07,05,08,55,20.30
2017,07,05,08,56,20.30
2017,07,05,08,57,20.30
2017,07,05,08,58,20.30
2017,07,05,08,59,20.40
2017,07,05,09,00,20.40
2017,07,05,09,01,20.40
2017,07,05,09,02,20.40
2017,07,05,09,03,20.50
2017,07,05,09,04,20.60
2017,07,05,09,05,20.70
2017,07,05,09,06,20.80
2017,07,05,09,07,20.90
2017,07,05,09,08,21.10
2017,07,05,09,09,21.20
2017,07,05,09,10,21.30
2017,07,05,09,11,21.30
2017,07,05,09,12,21.30
2017,07,05,09,13,21.30
2017,07,05,09,14,21.20
2017,07,05,09,15,21.20
2017,07,05,09,16,21.10
2017,07,05,09,17,21.00
2017,07,05,09,18,20.90
2017,07,05,09,19,20.80
2017,07,05,09,20,20.70
2017,07,05,09,21,20.70
2017,07,05,09,22,20.70
2017,07,05,09,23,20.80
2017,07,05,09,24,20.90
2017,07,05,09,25,21.00
2017,07,05,09,26,21.20
2017,07,05,09,27,21.20
2017,07,05,09,28,21.30
2017,07,05,09,29,21.30
2017,07,05,09,30,21.40
2017,07,05,09,31,21.40
2017,07,05,09,32,21.40
2017,07,05,09,33,21.40
2017,07,05,09,34,21.50
2017,07,05,09,35,21.50
2017,07,05,09,36,21.50
2017,07,05,09,37,21.60
2017,07,05,09,38,21.60
2017,07,05,09,39,21.70
2017,07,05,09,40,21.70
2017,07,05,09,41,21.80
2017,07,05,09,42,21.70
2017,07,05,09,43,21.70
2017,07,05,09,44,21.70
2017,07,05,09,45,21.70
2017,07,05,09,46,21.70
2017,07,05,09,47,21.70
2017,07,05,09,48,21.70
2017,07,05,09,49,21.80
2017,07,05,09,50,21.80
2017,07,05,09,51,21.80
2017,07,05,09,52,21.80
2017,07,05,09,53,21.80
2017,07,05,09,54,21.90
2017,07,05,09,55,21.90
2017,07,05,09,56,22.00
2017,07,05,09,57,22.10
2017,07,05,09,58,22.10
2017,07,05,09,59,22.10
2017,07,05,10,00,22.20
2017,07,05,10,01,22.20
2017,07,05,10,02,22.30
2017,07,05,10,03,22.40
2017,07,05,10,04,22.40
2017,07,05,10,05,22.40
2017,07,05,10,06,22.40
2017,07,05,10,07,22.50
2017,07,05,10,08,22.60
2017,07,05,10,09,22.60
2017,07,05,10,10,22.60
2017,07,05,10,11,22.60
2017,07,05,10,12,22.60
2017,07,05,10,13,22.70
2017,07,05,10,14,22.70
2017,07,05,10,15,22.80
2017,07,05,10,16,22.80
2017,07,05,10,17,22.70
2017,07,05,10,18,22.60
2017,07,05,10,19,22.50
2017,07,05,10,20,22.50
2017,07,05,10,21,22.40
2017,07,05,10,22,22.40
2017,07,05,10,23,22.40
2017,07,05,10,24,22.40
2017,07,05,10,25,22.40
2017,07,05,10,26,22.50
2017,07,05,10,27,22.60
2017,07,05,10,28,22.70
2017,07,05,10,29,22.70
2017,07,05,10,30,22.70
2017,07,05,10,31,22.70
2017,07,05,10,32,22.70
2017,07,05,10,33,22.70
2017,07,05,10,34,22.70
2017,07,05,10,35,22.80
2017,07,05,10,36,22.80
2017,07,05,10,37,22.80
2017,07,05,10,38,22.90
2017,07,05,10,39,22.90
2017,07,05,10,40,23.00
2017,07,05,10,41,23.00
2017,07,05,10,42,23.10
2017,07,05,10,43,23.10
2017,07,05,10,44,23.20
2017,07,05,10,45,23.20
2017,07,05,10,46,23.20
2017,07,05,10,47,23.20
2017,07,05,10,48,23.20
2017,07,05,10,49,23.30
2017,07,05,10,50,23.30
2017,07,05,10,51,23.30
2017,07,05,10,52,23.40
2017,07,05,10,53,23.40
2017,07,05,10,54,23.40
2017,07,05,10,55,23.40
2017,07,05,10,56,23.40
2017,07,05,10,57,23.30
2017,07,05,10,58,23.40
2017,07,05,10,59,23.30
2017,07,05,11,00,23.30
2017,07,05,11,01,23.30
2017,07,05,11,02,23.30
2017,07,05,11,03,23.20
2017,07,05,11,04,23.20
2017,07,05,11,05,23.20
2017,07,05,11,06,23.10
2017,07,05,11,07,23.10
2017,07,05,11,08,23.00
2017,07,05,11,09,23.00
2017,07,05,11,10,23.00
2017,07,05,11,11,23.00
2017,07,05,11,12,23.00
2017,07,05,11,13,22.90
2017,07,05,11,14,22.90
2017,07,05,11,15,22.90
2017,07,05,11,16,22.80
2017,07,05,11,17,22.90
2017,07,05,11,18,22.90
2017,07,05,11,19,22.90
2017,07,05,11,20,22.90
2017,07,05,11,21,22.70
2017,07,05,11,22,22.70
2017,07,05,11,23,22.70
2017,07,05,11,24,22.60
2017,07,05,11,25,22.60
2017,07,05,11,26,22.70
2017,07,05,11,27,22.70
2017,07,05,11,28,22.70
2017,07,05,11,29,22.70
2017,07,05,11,30,22.70
2017,07,05,11,31,22.80
2017,07,05,11,32,22.80
2017,07,05,11,33,22.80
2017,07,05,11,34,22.80
2017,07,05,11,35,22.80
2017,07,05,11,36,22.80
2017,07,05,11,37,22.80
2017,07,05,11,38,22.80
2017,07,05,11,39,22.80
2017,07,05,11,40,22.90
2017,07,05,11,41,23.00
2017,07,05,11,42,23.10
2017,07,05,11,43,23.20
2017,07,05,11,44,23.20
2017,07,05,11,45,23.20
2017,07,05,11,46,23.20
2017,07,05,11,47,23.10
2017,07,05,11,48,23.20
2017,07,05,11,49,23.20
2017,07,05,11,50,23.30
2017,07,05,11,51,23.30
2017,07,05,11,52,23.40
2017,07,05,11,53,23.40
2017,07,05,11,54,23.40
2017,07,05,11,55,23.30
2017,07,05,11,56,23.30
2017,07,05,11,57,23.30
2017,07,05,11,58,23.30
2017,07,05,11,59,23.30
2017,07,05,12,00,23.30
2017,07,05,12,01,23.30
2017,07,05,12,02,23.30
2017,07,05,12,03,23.30
2017,07,05,12,04,23.30
2017,07,05,12,05,23.20
2017,07,05,12,06,23.00
2017,07,05,12,07,22.90
2017,07,05,12,08,22.80
2017,07,05,12,09,22.80
2017,07,05,12,10,22.80
2017,07,05,12,11,22.80
2017,07,05,12,12,22.80
2017,07,05,12,13,22.80
2017,07,05,12,14,22.80
2017,07,05,12,15,22.80
2017,07,05,12,16,22.80
2017,07,05,12,17,22.90
2017,07,05,12,18,22.90
2017,07,05,12,19,23.00
2017,07,05,12,20,23.20
2017,07,05,12,21,23.30
2017,07,05,12,22,23.50
2017,07,05,12,23,23.60
2017,07,05,12,24,23.70
2017,07,05,12,25,23.70
2017,07,05,12,26,23.60
2017,07,05,12,27,23.60
2017,07,05,12,28,23.50
2017,07,05,12,29,23.40
2017,07,05,12,30,23.30
2017,07,05,12,31,23.20
2017,07,05,12,32,23.20
2017,07,05,12,33,23.20
2017,07,05,12,34,23.20
2017,07,05,12,35,23.20
2017,07,05,12,36,23.20
2017,07,05,12,37,23.20
2017,07,05,12,38,23.20
2017,07,05,12,39,23.20
2017,07,05,12,40,23.30
2017,07,05,12,41,23.40
2017,07,05,12,42,23.50
2017,07,05,12,43,23.60
2017,07,05,12,44,23.70
2017,07,05,12,45,23.70
2017,07,05,12,46,23.70
2017,07,05,12,47,23.70
2017,07,05,12,48,23.70
2017,07,05,12,49,23.70
2017,07,05,12,50,23.60
2017,07,05,12,51,23.60
2017,07,05,12,52,23.60
2017,07,05,12,53,23.60
2017,07,05,12,54,23.60
2017,07,05,12,55,23.50
2017,07,05,12,56,23.50
2017,07,05,12,57,23.50
2017,07,05,12,58,23.60
2017,07,05,12,59,23.60
2017,07,05,13,00,23.70
2017,07,05,13,01,23.80
2017,07,05,13,02,23.80
2017,07,05,13,03,23.80
2017,07,05,13,04,23.80
2017,07,05,13,05,23.80
2017,07,05,13,06,23.80
2017,07,05,13,07,23.80
2017,07,05,13,08,23.80
2017,07,05,13,09,23.90
2017,07,05,13,10,23.90
2017,07,05,13,11,23.90
2017,07,05,13,12,23.90
2017,07,05,13,13,23.90
2017,07,05,13,14,23.90
2017,07,05,13,15,23.90
2017,07,05,13,16,23.90
2017,07,05,13,17,23.90
2017,07,05,13,18,23.90
2017,07,05,13,19,23.90
2017,07,05,13,20,23.80
2017,07,05,13,21,23.80
2017,07,05,13,22,23.70
2017,07,05,13,23,23.70
2017,07,05,13,24,23.70
2017,07,05,13,25,23.70
2017,07,05,13,26,23.70
2017,07,05,13,27,23.80
2017,07,05,13,28,23.80
2017,07,05,13,29,23.80
2017,07,05,13,30,23.90
2017,07,05,13,31,23.90
2017,07,05,13,32,24.00
2017,07,05,13,33,24.00
2017,07,05,13,34,24.10
2017,07,05,13,35,24.20
2017,07,05,13,36,24.30
2017,07,05,13,37,24.40
2017,07,05,13,38,24.40
2017,07,05,13,39,24.40
2017,07,05,13,40,24.40
2017,07,05,13,41,24.40
2017,07,05,13,42,24.30
2017,07,05,13,43,24.30
2017,07,05,13,44,24.30
2017,07,05,13,45,24.30
2017,07,05,13,46,24.40
2017,07,05,13,47,24.40
2017,07,05,13,48,24.40
2017,07,05,13,49,24.40
2017,07,05,13,50,24.50
2017,07,05,13,51,24.50
2017,07,05,13,52,24.60
2017,07,05,13,53,24.70
2017,07,05,13,54,24.80
2017,07,05,13,55,24.80
2017,07,05,13,56,24.80
2017,07,05,13,57,24.80
2017,07,05,13,58,24.80
2017,07,05,13,59,24.80
2017,07,05,14,00,24.70
2017,07,05,14,01,24.60
2017,07,05,14,02,24.50
2017,07,05,14,03,24.60
2017,07,05,14,04,24.60
2017,07,05,14,05,24.60
2017,07,05,14,06,24.60
2017,07,05,14,07,24.60
2017,07,05,14,08,24.70
2017,07,05,14,09,24.70
2017,07,05,14,10,24.70
2017,07,05,14,11,24.70
2017,07,05,14,12,24.60
2017,07,05,14,13,24.60
2017,07,05,14,14,24.60
2017,07,05,14,15,24.70
2017,07,05,14,16,24.80
2017,07,05,14,17,24.90
2017,07,05,14,18,25.00
2017,07,05,14,19,25.10
2017,07,05,14,20,25.20
2017,07,05,14,21,25.30
2017,07,05,14,22,25.30
2017,07,05,14,23,25.30
2017,07,05,14,24,25.30
2017,07,05,14,25,25.20
2017,07,05,14,26,25.10
2017,07,05,14,27,25.10
2017,07,05,14,28,25.10
2017,07,05,14,29,25.00
2017,07,05,14,30,25.00
2017,07,05,14,31,24.90
2017,07,05,14,32,24.90
2017,07,05,14,33,24.90
2017,07,05,14,34,24.90
2017,07,05,14,35,25.00
2017,07,05,14,36,25.10
2017,07,05,14,37,25.20
2017,07,05,14,38,25.30
2017,07,05,14,39,25.30
2017,07,05,14,40,25.40
2017,07,05,14,41,25.30
2017,07,05,14,42,25.30
2017,07,05,14,43,25.40
2017,07,05,14,44,25.40
2017,07,05,14,45,25.40
2017,07,05,14,46,25.40
2017,07,05,14,47,25.40
2017,07,05,14,48,25.40
2017,07,05,14,49,25.40
2017,07,05,14,50,25.40
2017,07,05,14,51,25.40
2017,07,05,14,52,25.50
2017,07,05,14,53,25.60
2017,07,05,14,54,25.70
2017,07,05,14,55,25.70
2017,07,05,14,56,25.70
2017,07,05,14,57,25.70
2017,07,05,14,58,25.70
2017,07,05,14,59,25.70
2017,07,05,15,00,25.70
2017,07,05,15,01,25.70
2017,07,05,15,02,25.70
2017,07,05,15,03,25.70
2017,07,05,15,04,25.60
2017,07,05,15,05,25.50
2017,07,05,15,06,25.40
2017,07,05,15,07,25.30
2017,07,05,15,08,25.30
2017,07,05,15,09,25.30
2017,07,05,15,10,25.30
2017,07,05,15,11,25.40
2017,07,05,15,12,25.50
2017,07,05,15,13,25.50
2017,07,05,15,14,25.50
2017,07,05,15,15,25.40
2017,07,05,15,16,25.50
2017,07,05,15,17,25.40
2017,07,05,15,18,25.50
2017,07,05,15,19,25.60
2017,07,05,15,20,25.70
2017,07,05,15,21,25.70
2017,07,05,15,22,25.80
2017,07,05,15,23,25.90
2017,07,05,15,24,25.90
2017,07,05,15,25,25.90
2017,07,05,15,26,25.90
2017,07,05,15,27,25.90
2017,07,05,15,28,25.90
2017,07,05,15,29,25.90
2017,07,05,15,30,26.00
2017,07,05,15,31,26.10
2017,07,05,15,32,26.20
2017,07,05,15,33,26.40
2017,07,05,15,34,26.60
2017,07,05,15,35,26.70
2017,07,05,15,36,26.80
2017,07,05,15,37,26.80
2017,07,05,15,38,27.00
2017,07,05,15,39,27.10
2017,07,05,15,40,27.20
2017,07,05,15,41,27.30
2017,07,05,15,42,27.40
2017,07,05,15,43,27.40
2017,07,05,15,44,27.40
2017,07,05,15,45,27.40
2017,07,05,15,46,27.40
2017,07,05,15,47,27.30
2017,07,05,15,48,27.30
2017,07,05,15,49,27.30
2017,07,05,15,50,27.30
2017,07,05,15,51,27.30
2017,07,05,15,52,27.20
2017,07,05,15,53,27.10
2017,07,05,15,54,27.00
2017,07,05,15,55,26.90
2017,07,05,15,56,26.80
2017,07,05,15,57,26.70
2017,07,05,15,58,26.70
2017,07,05,15,59,26.70
2017,07,05,16,00,26.70
2017,07,05,16,01,26.70
2017,07,05,16,02,26.60
2017,07,05,16,03,26.60
2017,07,05,16,04,26.60
2017,07,05,16,05,26.50
2017,07,05,16,06,26.50
2017,07,05,16,07,26.50
2017,07,05,16,08,26.40
2017,07,05,16,09,26.40
2017,07,05,16,10,26.40
2017,07,05,16,11,26.40
2017,07,05,16,12,26.50
2017,07,05,16,13,26.50
2017,07,05,16,14,26.40
2017,07,05,16,15,26.40
2017,07,05,16,16,26.30
2017,07,05,16,17,26.30
2017,07,05,16,18,26.30
2017,07,05,16,19,26.30
2017,07,05,16,20,26.30
2017,07,05,16,21,26.20
2017,07,05,16,22,26.20
2017,07,05,16,23,26.20
2017,07,05,16,24,26.20
2017,07,05,16,25,26.20
2017,07,05,16,26,26.20
2017,07,05,16,27,26.20
2017,07,05,16,28,26.30
2017,07,05,16,29,26.40
2017,07,05,16,30,26.50
2017,07,05,16,31,26.50
2017,07,05,16,32,26.60
2017,07,05,16,33,26.60
2017,07,05,16,34,26.60
2017,07,05,16,35,26.60
2017,07,05,16,36,26.50
2017,07,05,16,37,26.60
2017,07,05,16,38,26.50
2017,07,05,16,39,26.40
2017,07,05,16,40,26.40
2017,07,05,16,41,26.40
2017,07,05,16,42,26.40
2017,07,05,16,43,26.40
2017,07,05,16,44,26.30
2017,07,05,16,45,26.20
2017,07,05,16,46,26.00
2017,07,05,16,47,25.80
2017,07,05,16,48,25.70
2017,07,05,16,49,25.60
2017,07,05,16,50,25.60
2017,07,05,16,51,25.50
2017,07,05,16,52,25.50
2017,07,05,16,53,25.50
2017,07,05,16,54,25.40
2017,07,05,16,55,25.50
2017,07,05,16,56,25.50
2017,07,05,16,57,25.60
2017,07,05,16,58,25.70
2017,07,05,16,59,25.80
2017,07,05,17,00,25.90
2017,07,05,17,01,26.00
2017,07,05,17,02,26.00
2017,07,05,17,03,26.10
2017,07,05,17,04,26.10
2017,07,05,17,05,26.20
2017,07,05,17,06,26.30
2017,07,05,17,07,26.30
2017,07,05,17,08,26.30
2017,07,05,17,09,26.30
2017,07,05,17,10,26.30
2017,07,05,17,11,26.30
2017,07,05,17,12,26.40
2017,07,05,17,13,26.50
2017,07,05,17,14,26.70
2017,07,05,17,15,26.90
2017,07,05,17,16,27.00
2017,07,05,17,17,27.00
2017,07,05,17,18,27.00
2017,07,05,17,19,26.90